sat.trackr.live / text

‹ back to catalog

STARLINK-3910

NORAD 52586 · 2022-051BC

PAYLOAD ACTIVE UNKNOWN

§ Identity

Operator
Country
US
Launch date
2022-05-13
Launch site
AFWTR
Launch vehicle
Mass (kg)
RCS (m²)

Purposes: comms

External: N2YO · Heavens-Above · Gunter

§ Orbital elements

Epoch: 2026-09-19T15:24:26.384256Z

Period
93.79 min
Inclination
53.1613°
Eccentricity
0.0001126
Mean motion
15.35407196 rev/d
Perigee alt
458.9 km
Apogee alt
460.5 km
Semi-major
6,837.8 km
B*
3.5891e-5
RAAN
321.7312°
Arg perigee
74.9696°
Mean anomaly
285.1432°
Rev number
24,095

§ Raw data

STARLINK-39101 52586U 22051BC  26262.64197204  .00000872  00000+0  35891-4 0  99932 52586  53.1613 321.7312 0001126  74.9696 285.1432 15.35407196240953

JSON: /api/v1/satellites/52586 · /tle

For live sub-satellite position, see the globe view (requires WebGL).

§ Visibility from observer

Set your observer location to see the next 7 days of passes ≥ 10°. The values pass through the URL so the page stays shareable.

No JS? Fill the form by hand. The geolocation button needs JavaScript.